Total_Precipitation_Accumulation
1.26 1.24 1.16 1.17 1.08 1.16 1.31 1.43 1.46 1.48 1.50 1.43 1.28 1.40 1.47 1.56 1.64 1.73 2.01 2.36 2.70 3.23 3.55 3.39 3.02 2.69 2.55 2.51 2.53 2.50 2.52 2.64 2.66 2.68 2.69 2.60 2.54 2.43 2.41 2.39 2.35 2.32 2.36
1.21 1.23 1.22 1.26 1.19 1.22 1.35 1.37 1.30 1.43 1.62 1.54 1.36 1.34 1.38 1.46 1.56 1.56 1.70 2.00 2.33 2.69 3.41 3.75 3.61 3.36 3.20 2.93 2.93 2.84 2.72 2.50 2.44 2.55 2.55 2.53 2.55 2.39 2.32 2.22 2.21 2.11 2.11
1.07 1.15 1.19 1.17 1.20 1.33 1.40 1.46 1.28 1.35 1.42 1.41 1.41 1.36 1.30 1.32 1.35 1.39 1.41 1.54 1.75 2.13 2.78 3.43 3.81 3.76 3.68 3.50 3.30 3.04 2.74 2.49 2.43 2.47 2.46 2.35 2.40 2.34 2.21 2.21 2.12 2.13 2.09
1.03 1.17 1.20 1.15 1.15 1.34 1.49 1.57 1.48 1.50 1.48 1.47 1.49 1.46 1.34 1.36 1.26 1.27 1.31 1.36 1.61 1.62 2.04 2.62 3.10 3.28 3.49 3.50 3.34 3.16 2.85 2.45 2.30 2.39 2.43 2.22 2.21 2.23 2.11 2.20 2.10 2.01 1.97
1.14 1.30 1.40 1.38 1.34 1.39 1.45 1.46 1.56 1.60 1.59 1.60 1.50 1.48 1.44 1.37 1.38 1.25 1.27 1.38 1.41 1.53 1.75 2.00 2.31 2.48 2.83 3.09 3.27 3.43 3.21 2.70 2.39 2.43 2.47 2.22 2.12 2.22 2.09 2.08 2.03 1.85 1.77
1.47 1.60 1.60 1.67 1.69 1.61 1.63 1.61 1.69 1.68 1.61 1.67 1.52 1.40 1.38 1.31 1.42 1.49 1.42 1.46 1.46 1.46 1.82 2.03 2.03 1.92 2.27 2.64 2.98 3.36 3.48 3.14 2.86 2.64 2.61 2.42 2.22 2.32 2.11 2.03 2.02 1.76 1.66
1.74 1.99 1.94 2.01 2.07 2.00 1.97 1.96 2.22 2.18 1.92 1.74 1.83 1.67 1.49 1.37 1.53 1.59 1.53 1.63 1.70 1.82 2.04 2.06 1.90 1.74 1.67 1.95 2.27 2.82 3.47 3.42 3.22 2.90 2.75 2.54 2.27 2.19 1.95 1.92 1.94 1.81 1.64
1.61 1.79 2.07 2.21 2.17 2.30 2.41 2.38 2.75 2.90 2.41 1.98 2.12 2.38 2.11 1.89 1.68 1.54 1.60 1.65 1.80 2.02 2.12 2.00 1.83 1.63 1.51 1.59 1.61 2.08 2.78 3.19 3.24 3.05 2.83 2.55 2.32 2.12 2.00 2.01 1.97 2.00 1.79
1.56 1.70 1.86 2.01 2.05 2.20 2.39 2.51 2.83 3.38 3.14 2.46 2.28 2.73 2.53 2.31 2.16 1.82 1.66 1.66 1.72 2.00 2.28 2.22 1.98 1.75 1.56 1.61 1.58 1.79 2.14 2.49 3.05 3.22 3.08 2.78 2.54 2.25 2.14 2.22 2.02 2.17 2.15
1.43 1.56 1.69 1.81 1.94 2.01 2.19 2.28 2.42 3.01 3.42 3.08 2.77 2.46 2.15 2.12 2.33 2.31 1.93 1.73 1.72 1.86 2.08 2.09 1.97 1.90 1.75 1.63 1.55 1.56 1.83 2.08 2.70 3.18 3.40 3.24 2.93 2.59 2.55 2.70 2.38 2.22 2.19
1.51 1.52 1.69 1.75 1.77 1.86 2.01 2.35 2.62 2.92 3.17 3.20 3.18 2.94 2.64 2.36 2.03 2.32 2.38 2.03 1.89 1.85 1.90 1.95 1.86 1.86 1.84 1.78 1.86 1.65 1.62 1.84 2.20 2.79 3.43 3.69 3.40 3.09 3.10 3.17 2.74 2.52 2.41
1.66 1.68 1.73 1.75 1.72 1.77 1.90 2.17 2.48 2.71 3.04 3.28 3.24 3.03 2.90 2.77 2.51 2.45 2.33 2.17 2.18 2.04 1.90 1.85 1.71 1.70 1.85 2.03 2.01 2.00 1.72 1.61 1.72 2.05 2.60 3.12 3.34 3.35 3.47 3.48 3.21 3.16 2.97
1.60 1.63 1.70 1.82 1.89 1.94 2.06 2.24 2.42 2.37 2.57 3.00 3.04 2.90 2.83 2.66 2.59 2.66 2.61 2.29 2.14 1.88 1.77 1.73 1.61 1.67 1.66 1.75 2.02 2.21 1.80 1.53 1.39 1.64 1.87 2.15 2.50 2.88 3.32 3.58 3.61 3.63 3.45
1.56 1.49 1.53 1.63 1.75 1.93 1.99 2.06 2.12 2.09 2.20 2.46 2.57 2.77 2.89 2.69 2.60 2.49 2.46 2.53 2.29 2.00 1.83 1.67 1.51 1.53 1.52 1.59 1.86 2.05 1.74 1.53 1.20 1.20 1.33 1.59 1.82 2.13 2.54 3.00 3.40 3.59 3.65
1.30 1.22 1.22 1.29 1.36 1.44 1.54 1.69 1.79 1.90 1.98 2.11 2.24 2.38 2.56 2.69 2.64 2.47 2.46 2.46 2.45 2.23 2.01 1.82 1.64 1.43 1.50 1.62 1.85 1.65 1.57 1.56 1.31 1.16 1.11 1.24 1.45 1.59 1.80 2.05 2.36 2.72 3.02
1.27 1.17 1.12 1.09 1.07 1.03 1.08 1.26 1.46 1.59 1.69 1.85 2.04 2.18 2.23 2.30 2.51 2.51 2.39 2.41 2.36 2.23 2.06 1.82 1.70 1.53 1.65 1.60 1.77 1.57 1.58 1.67 1.37 1.23 1.13 1.14 1.25 1.23 1.20 1.31 1.43 1.64 2.06
1.29 1.25 1.15 1.09 1.16 1.14 1.10 1.16 1.20 1.26 1.35 1.50 1.65 1.78 1.94 2.20 2.50 2.55 2.53 2.44 2.37 2.27 2.02 1.79 1.59 1.49 1.78 1.88 1.79 1.66 1.63 1.59 1.37 1.29 1.17 1.08 1.12 1.11 1.04 0.99 1.02 1.16 1.41
0.91 1.01 1.12 1.06 1.03 1.05 1.07 1.13 1.12 1.15 1.21 1.33 1.45 1.58 1.77 2.05 2.40 2.61 2.70 2.59 2.47 2.37 2.22 2.05 1.72 1.46 1.57 1.88 2.00 1.93 1.74 1.58 1.42 1.37 1.21 1.08 1.05 1.04 0.98 0.94 0.91 0.94 1.03
0.73 0.74 0.84 0.84 0.92 1.01 1.04 1.08 1.09 1.12 1.16 1.25 1.41 1.49 1.55 1.76 1.96 2.15 2.34 2.47 2.45 2.45 2.42 2.17 1.87 1.60 1.53 1.68 1.92 1.91 1.84 1.83 1.58 1.51 1.48 1.32 1.18 1.12 1.07 0.94 0.91 0.91 0.93
0.81 0.82 0.92 0.96 0.91 0.90 0.95 1.03 1.07 1.06 1.06 1.08 1.16 1.26 1.37 1.44 1.63 1.77 1.87 2.09 2.30 2.55 2.60 2.45 2.18 1.85 1.74 1.62 1.70 1.87 1.94 1.89 1.80 1.60 1.55 1.42 1.39 1.33 1.29 1.13 0.97 0.89 0.91
0.91 0.89 0.96 1.05 1.10 1.06 1.03 1.09 1.05 1.04 1.06 1.04 1.08 1.07 1.15 1.21 1.30 1.50 1.53 1.76 2.07 2.37 2.46 2.53 2.41 2.09 1.83 1.68 1.44 1.55 1.81 2.03 2.03 1.96 1.94 1.67 1.50 1.34 1.31 1.30 1.24 1.10 0.96
0.84 0.78 0.78 0.83 0.91 0.99 1.27 1.21 0.99 0.92 0.97 1.02 1.06 1.05 1.09 1.05 1.04 1.13 1.27 1.39 1.68 1.92 2.06 2.14 2.17 2.00 1.79 1.66 1.61 1.57 1.65 1.80 1.85 1.75 1.81 1.90 1.79 1.62 1.51 1.39 1.42 1.45 1.35
0.73 0.69 0.68 0.65 0.68 0.88 1.03 0.85 0.81 0.81 0.91 1.02 1.09 1.14 1.10 1.05 1.09 1.09 1.14 1.16 1.21 1.41 1.64 1.85 1.88 1.78 1.85 1.76 1.69 1.58 1.59 1.59 1.56 1.67 1.76 1.86 1.86 1.76 1.66 1.65 1.65 1.51 1.45
0.66 0.63 0.66 0.71 0.71 0.77 0.88 0.74 0.69 0.72 0.90 1.03 1.03 1.00 1.09 1.13 1.17 1.23 1.15 1.20 1.13 1.13 1.24 1.27 1.41 1.66 1.85 2.02 1.99 1.88 1.87 1.78 1.68 1.77 1.80 1.79 1.68 1.62 1.54 1.54 1.61 1.44 1.33
0.73 0.70 0.78 0.83 0.77 0.73 0.82 0.78 0.78 0.84 0.96 1.04 1.01 1.03 1.12 1.17 1.35 1.41 1.29 1.34 1.28 1.25 1.24 1.36 1.44 1.57 1.69 1.81 1.97 2.01 1.95 1.93 1.79 1.70 1.68 1.65 1.55 1.58 1.56 1.46 1.41 1.41 1.29
0.67 0.72 0.73 0.68 0.67 0.74 0.87 0.82 0.88 0.98 1.09 1.19 1.16 1.17 1.40 1.37 1.37 1.31 1.24 1.40 1.36 1.22 1.15 1.19 1.25 1.35 1.40 1.51 1.65 1.70 1.87 2.00 1.91 1.73 1.49 1.47 1.46 1.52 1.59 1.47 1.37 1.28 1.24